Location: Boston
(42.3580°N, 71.0600°W)
Time: 20:31:28
(UTC-05:00)

Vanguard 2 Rocket - All Passes

Search period start: 18 January 2018 00:00
Search period end: 28 January 2018 00:00
Orbit: 556 x 3326 km, 32.9° (Epoch: 18 January)

Date Brightness Start Highest point End Pass type
(mag) Time Alt. Az. Time Alt. Az. Time Alt. Az.
18 Jan - 06:23:07 10° SSW 06:29:39 17° SSE 06:34:34 10° ESE visible
18 Jan - 08:35:59 10° SW 08:43:19 29° S 08:48:07 10° ESE daylight
18 Jan - 10:50:52 10° WSW 10:55:59 29° S 10:59:44 10° SE daylight
18 Jan - 13:06:16 10° SW 13:07:57 12° SSW 13:09:34 10° S daylight
19 Jan - 05:24:01 10° S 05:29:43 14° SSE 05:34:21 10° SE visible
19 Jan - 07:35:23 10° SW 07:43:52 28° SSE 07:49:24 10° ESE daylight
19 Jan - 09:50:25 10° WSW 09:56:58 33° S 10:01:20 10° ESE daylight
19 Jan - 12:05:42 10° WSW 12:09:08 19° SSW 12:12:02 10° SSE daylight
20 Jan - 04:27:04 10° SSE 04:29:34 11° SSE 04:31:53 10° SE visible
20 Jan - 06:34:48 10° SSW 06:44:09 25° SSE 06:50:25 10° ESE visible
20 Jan - 08:49:39 10° WSW 08:57:46 35° S 09:02:52 10° ESE daylight
20 Jan - 11:05:17 10° WSW 11:10:18 26° SSW 11:14:01 10° SE daylight
21 Jan - 05:34:27 10° SSW 05:44:12 22° SSE 05:51:02 10° ESE visible
21 Jan - 07:48:39 10° SW 07:58:20 36° S 08:04:16 10° ESE daylight
21 Jan - 10:04:38 10° WSW 10:11:21 34° S 10:15:47 10° SE daylight
21 Jan - 12:20:58 10° WSW 12:23:16 13° SSW 12:25:19 10° S daylight
22 Jan - 04:34:38 10° S 04:43:59 19° SSE 04:51:02 10° ESE visible
22 Jan - 06:47:31 10° SW 06:58:37 34° SSE 07:05:30 10° ESE daylight
22 Jan - 09:03:38 10° WSW 09:12:11 39° S 09:17:25 10° ESE daylight
22 Jan - 11:19:56 10° WSW 11:24:30 21° SSW 11:27:58 10° SSE daylight
23 Jan - 03:35:58 10° S 03:43:36 15° SSE 03:49:53 10° ESE visible
23 Jan - 05:46:28 10° SW 05:58:38 31° SSE 06:06:27 10° ESE visible
23 Jan - 08:02:20 10° WSW 08:12:45 42° S 08:18:55 10° ESE daylight
23 Jan - 10:19:00 10° WSW 10:25:37 31° SSW 10:30:02 10° SE daylight
24 Jan - 02:41:25 10° SSE 02:43:02 10° SE 02:44:38 10° SE visible
24 Jan - 04:45:45 10° SSW 04:58:21 28° SSE 05:07:00 10° ESE visible
24 Jan - 07:00:50 10° SW 07:13:02 42° S 07:20:15 10° ESE daylight
24 Jan - 09:17:50 10° WSW 09:26:31 39° SSW 09:31:50 10° ESE daylight
24 Jan - 11:35:00 10° WSW 11:38:32 16° SSW 11:41:24 10° S daylight
25 Jan - 03:45:38 10° SSW 03:57:52 23° SSE 04:06:57 10° ESE visible
25 Jan - 05:59:19 10° SW 06:13:01 40° SSE 06:21:22 10° E visible
25 Jan - 08:16:19 10° WSW 08:27:08 45° S 08:33:26 10° ESE daylight
25 Jan - 10:33:34 10° WSW 10:39:45 25° SSW 10:44:01 10° SSE daylight
26 Jan - 02:46:31 10° S 02:57:13 18° SE 03:05:56 10° ESE visible
26 Jan - 04:57:59 10° SW 05:12:40 37° SSE 05:22:10 10° E visible
26 Jan - 07:14:33 10° WSW 07:27:25 48° S 07:34:51 10° ESE daylight
26 Jan - 09:32:10 10° W 09:40:45 36° SSW 09:46:04 10° SE daylight
27 Jan - 01:49:30 10° SSE 01:56:31 13° SE 02:02:51 10° ESE visible
27 Jan - 03:57:06 10° SSW 04:12:05 32° SSE 04:22:33 10° E visible
27 Jan - 06:12:41 10° WSW 06:27:22 48° S 06:36:02 10° ESE visible
27 Jan - 08:30:28 10° W 08:41:26 44° SSW 08:47:49 10° ESE daylight
27 Jan - 10:48:28 10° WSW 10:53:41 19° SW 10:57:32 10° S daylight
